Retour au catalogue

FENGYUN 3B

ActifMétéoSSO
NORAD 37214·PAYLOAD·🇨🇳 China

Lancé Nov 4, 2010 depuis Taiyuan Satellite Launch Center

Loading…

Prochains Passages (prochaines 24 heures)

TLE

FraisSource: Space-Track

Époque: Sep 14, 2026, 15:19 UTC

1 37214U 10059A   26257.63880579  .00000414  00000-0  23744-3 0  9992
2 37214  98.9537 303.9967 0021164 294.5577 217.6676 14.14858702820072

Suivez FENGYUN 3B en temps réel avec AllMySat

Download on the App Store